Wind_Speed
11 12 13 6 15 8 14 14 12 14 10 13 9 13 14 11 14 11 11 11 12 13 13 13 12 11 11 11 11 10 9 8 8 6 7 8 8 9 8 8 8 8 10 11 11 12 13 12 13
10 11 9 4 11 10 13 11 10 15 14 12 10 13 15 13 14 13 14 10 10 11 12 12 12 12 13 13 12 11 11 10 9 9 9 9 9 9 8 8 8 8 8 10 10 11 12 12 12
8 7 8 2 11 7 11 10 10 9 15 13 13 13 15 14 14 13 14 13 9 10 11 12 12 13 13 13 12 11 11 11 10 9 8 8 7 6 6 8 8 9 8 7 10 11 13 13 13
7 6 7 8 8 10 12 12 11 12 15 14 14 16 13 12 14 13 15 13 9 9 12 12 14 15 15 12 12 12 12 12 10 9 8 8 6 4 3 6 6 8 9 8 12 13 14 15 15
7 7 10 11 13 14 14 13 12 11 16 13 12 17 17 14 11 13 14 12 9 11 14 14 15 15 15 14 14 14 13 12 11 10 9 8 5 2 2 3 6 9 8 10 12 13 13 15 16
7 9 11 9 15 18 17 13 12 12 15 14 12 13 19 17 13 14 13 11 9 12 15 15 15 17 16 15 16 16 14 14 13 11 10 10 10 10 4 4 7 12 11 14 15 15 14 18 13
5 10 13 9 23 20 16 14 12 10 16 16 14 11 17 17 13 15 13 12 13 14 15 15 17 18 16 15 16 16 15 14 13 13 12 10 13 13 6 11 10 12 12 15 15 14 15 15 13
9 9 13 10 21 27 20 13 13 9 13 14 10 10 16 16 13 17 14 13 15 15 16 17 18 18 17 14 14 15 14 14 14 14 12 16 20 21 13 17 17 18 18 19 16 14 15 14 13
12 6 8 6 27 15 17 16 13 11 14 12 8 9 17 16 14 18 15 14 16 17 18 19 19 17 16 14 14 15 14 15 15 15 17 17 20 22 23 22 24 23 24 19 17 15 14 14 14
10 6 9 16 10 18 18 19 15 13 14 17 10 10 15 18 16 20 17 14 16 17 18 17 16 16 15 14 14 15 14 15 15 17 19 17 15 20 23 24 24 25 22 18 15 14 13 14 15
8 8 8 17 11 22 12 10 12 12 13 17 19 10 14 15 14 19 18 14 14 16 16 16 15 14 14 13 13 14 13 15 16 18 21 21 20 19 18 21 19 20 19 17 15 15 16 16 16
8 9 9 24 18 13 13 10 17 12 11 17 18 19 16 14 19 18 19 18 13 14 14 15 15 15 14 12 12 14 12 16 13 16 21 18 20 21 19 19 18 17 17 17 17 17 19 19 18
7 4 15 14 10 10 11 11 2 10 14 16 17 18 19 15 15 17 18 19 16 12 13 15 15 16 14 11 10 13 13 16 16 14 17 20 19 21 21 22 21 21 21 20 20 21 21 21 20
11 14 18 15 11 7 11 7 2 9 17 16 18 17 18 17 16 19 18 18 17 13 10 14 14 15 13 12 9 12 14 15 14 18 20 19 19 20 22 22 23 23 24 22 22 18 17 19 19
15 17 9 8 10 7 9 10 15 10 16 16 17 17 16 19 16 18 19 18 14 16 12 13 12 13 12 13 11 12 13 15 15 18 17 17 18 18 19 20 20 21 21 20 21 20 19 18 17
18 14 10 3 16 11 17 10 14 16 20 18 16 18 17 17 17 17 19 20 15 15 14 11 10 11 11 12 13 13 14 14 14 12 13 16 15 15 16 17 20 19 19 19 20 20 17 16 15
19 16 14 10 8 13 12 12 11 12 20 19 17 20 18 17 19 17 16 18 16 16 15 12 10 11 11 10 14 14 14 13 12 11 11 14 15 14 14 16 18 18 18 18 18 19 17 15 15
21 18 18 18 15 13 13 12 13 16 19 22 18 21 20 20 18 17 15 15 16 15 14 13 13 11 10 10 11 13 13 13 12 12 11 10 13 14 15 14 15 16 16 14 15 16 15 13 11
24 19 18 22 14 20 15 17 15 12 19 26 21 17 23 17 19 20 20 17 14 14 13 12 12 10 12 9 11 11 11 12 13 11 13 12 11 13 14 14 14 15 16 15 14 15 14 13 14
23 23 22 26 20 13 22 18 18 13 17 17 21 17 17 16 18 16 22 21 18 16 15 13 11 9 13 11 9 11 11 12 13 12 11 12 12 12 12 12 13 13 13 14 14 14 13 12 14
26 23 21 18 22 17 18 14 16 17 16 22 25 20 18 20 17 18 20 20 20 19 17 15 12 12 10 12 8 9 10 13 13 12 13 11 11 11 11 12 12 11 11 13 12 10 11 12 12
27 25 23 26 24 24 26 19 13 15 19 20 17 24 19 17 19 18 19 17 18 18 17 18 14 12 11 9 9 9 8 10 12 13 11 11 11 9 10 10 10 10 9 9 10 9 7 9 10
29 31 26 26 26 25 20 17 19 18 12 16 6 25 22 21 18 18 20 20 16 17 16 18 18 15 11 10 10 11 9 10 12 14 13 13 12 10 11 10 9 9 9 8 8 7 6 8 8
35 35 27 25 27 22 21 17 18 15 18 11 9 17 22 20 19 18 18 20 18 16 16 17 18 18 16 13 10 10 9 9 10 11 13 14 13 13 12 11 10 10 10 9 9 7 5 4 6
42 41 37 33 33 26 23 23 20 16 14 20 18 19 16 25 25 22 19 18 19 17 17 17 17 16 16 16 14 10 10 13 12 13 13 14 14 14 13 13 13 12 13 11 9 8 7 5 5
43 42 41 39 34 24 28 29 23 19 13 10 11 18 19 25 18 19 24 20 17 18 20 18 17 18 18 18 17 15 11 12 14 14 14 15 15 15 15 15 13 14 12 12 12 10 10 9 7
43 45 39 39 35 31 32 25 25 24 17 13 16 15 24 22 24 18 26 23 18 17 18 20 20 18 17 18 19 18 15 12 15 13 15 16 16 17 15 14 14 13 12 11 11 11 11 11 9
43 41 43 44 42 38 35 30 25 22 12 14 12 17 17 20 23 25 25 22 22 23 22 17 21 19 17 17 20 21 20 17 15 15 17 17 17 17 17 16 14 14 13 13 13 13 13 14 14
41 44 43 43 45 43 35 28 24 22 15 16 15 19 21 26 26 16 26 30 28 23 28 26 21 20 21 24 23 22 23 22 20 18 18 20 19 18 17 17 16 15 14 15 15 14 14 13 13
40 41 43 44 45 46 44 38 32 22 19 19 22 19 19 20 19 20 22 29 23 25 22 21 24 25 24 27 27 24 24 25 25 22 20 20 20 20 19 19 20 20 18 17 17 17 15 14 14
Wind_Direction
334 337 348 107 145 147 109 83 91 107 99 94 115 97 105 104 107 100 96 103 107 105 103 96 92 87 81 77 76 80 85 93 97 100 97 89 88 88 91 101 110 114 117 123 122 122 115 113 112
330 345 7 188 157 115 105 96 80 117 108 101 114 109 112 119 114 115 108 100 100 99 93 88 83 77 74 75 73 76 82 86 87 86 92 91 92 96 107 108 110 112 126 133 130 122 116 113 117
316 7 65 193 163 110 133 108 95 112 106 113 114 98 112 118 111 118 113 112 111 101 86 80 79 75 74 75 78 80 81 83 81 83 78 78 88 93 100 119 120 118 118 129 127 121 114 109 116
306 331 323 328 156 150 151 135 123 136 107 115 117 121 114 106 117 124 118 116 120 99 90 83 81 84 83 84 86 80 79 79 73 75 80 74 75 78 92 109 119 119 113 121 129 124 117 111 106
312 312 304 304 204 169 155 144 114 125 108 119 123 129 118 104 113 114 116 116 112 106 89 86 85 83 82 84 86 84 80 77 70 65 62 59 50 117 141 150 137 125 124 129 125 122 113 109 107
320 306 310 310 186 170 158 152 120 130 119 117 123 135 114 109 117 108 102 101 98 90 93 92 86 80 79 83 85 83 78 77 71 65 59 53 37 57 59 164 157 135 141 138 131 123 114 109 108
346 296 315 316 180 195 166 153 126 129 127 121 124 128 113 108 105 102 97 96 91 92 92 90 83 80 80 79 83 79 73 76 68 63 61 65 81 70 121 134 148 142 142 128 122 116 119 118 114
269 335 40 166 200 159 154 155 137 121 121 109 116 127 123 115 110 102 99 98 101 94 87 80 80 81 79 78 80 78 74 70 58 57 69 96 79 66 81 125 131 134 130 122 127 118 115 114 112
253 280 10 113 185 131 159 163 154 131 114 113 100 134 128 134 127 107 107 107 105 94 85 78 75 75 79 78 76 68 72 68 60 66 67 87 81 76 81 105 120 125 120 125 123 115 115 113 108
249 265 55 103 175 191 176 164 154 148 133 129 122 159 140 144 132 114 111 112 105 92 85 77 74 73 72 74 70 66 72 73 71 75 74 80 88 90 87 95 106 114 119 118 116 111 113 114 117
241 296 197 171 125 162 121 160 175 172 150 140 127 151 131 138 122 117 111 110 105 93 85 76 72 75 72 71 75 71 63 71 77 77 86 86 79 111 94 109 107 112 117 121 120 119 120 119 117
242 240 300 138 128 132 144 143 172 171 167 148 146 151 144 148 144 135 114 116 109 101 91 78 68 73 73 66 71 75 68 73 88 72 91 95 87 98 98 115 105 115 109 114 115 121 120 121 123
232 240 192 131 137 116 143 161 146 196 152 148 155 155 148 150 136 131 122 119 117 106 94 81 68 69 77 77 74 84 80 73 82 90 92 90 95 96 102 105 108 107 109 112 118 118 123 127 128
204 209 165 130 135 158 178 185 134 141 156 151 154 162 155 147 150 149 132 125 125 116 99 87 76 71 74 86 86 90 86 88 90 101 96 99 98 100 100 105 107 107 108 110 112 115 121 123 124
206 242 144 147 146 156 150 158 204 257 189 157 163 171 157 156 161 156 135 129 129 122 113 94 87 78 77 84 98 102 90 87 100 99 104 96 99 108 113 111 109 110 114 119 120 122 127 128 129
209 217 224 219 168 167 166 169 156 203 164 160 170 173 165 162 168 165 144 136 140 126 120 108 98 86 82 86 98 108 102 89 95 102 101 96 99 110 112 114 117 117 119 123 124 122 124 125 126
210 211 223 253 198 164 166 163 149 139 157 166 177 177 176 171 182 166 153 145 142 132 131 125 113 102 96 102 101 109 111 108 98 101 106 104 106 103 114 120 121 120 122 125 124 123 125 126 123
211 213 217 235 219 224 178 173 171 175 194 172 182 181 177 177 181 167 164 154 148 135 131 128 119 113 108 116 114 112 115 121 112 111 119 115 112 111 115 121 122 127 124 120 117 116 116 118 126
214 211 209 215 228 176 196 173 155 167 185 181 178 177 184 175 186 177 171 169 165 148 137 129 119 124 118 111 115 114 120 130 127 120 129 131 122 115 120 127 127 129 126 125 130 132 129 137 141
221 214 213 226 241 238 187 168 170 173 178 174 173 174 186 184 188 182 180 178 173 171 158 145 138 123 124 123 124 125 132 132 132 137 133 133 137 130 122 127 130 131 129 133 139 138 134 141 152
222 218 208 212 212 205 201 183 176 175 184 188 182 184 173 187 186 196 189 184 178 176 167 159 154 135 128 128 135 136 132 134 141 146 142 136 140 147 141 140 140 138 140 139 140 143 143 148 156
219 224 223 225 227 231 238 244 247 199 211 188 208 184 186 191 193 197 199 196 182 181 174 163 167 150 142 134 145 147 137 140 144 153 151 144 139 145 157 156 154 152 151 149 148 147 149 148 153
218 227 220 232 233 226 237 248 257 263 265 204 245 179 192 191 194 195 205 207 191 183 182 177 176 168 163 146 137 148 152 161 159 151 161 157 153 158 155 165 172 173 167 172 163 162 162 147 150
219 226 228 227 232 234 231 234 242 253 218 240 288 211 204 198 201 200 204 208 204 191 184 194 190 179 179 174 160 166 165 164 170 159 154 163 170 170 160 163 172 183 183 183 176 174 167 148 152
216 221 220 225 227 225 229 231 235 244 248 258 283 191 207 212 210 233 212 204 201 204 194 198 202 199 195 186 179 177 175 169 178 175 169 168 172 171 169 173 177 182 185 181 191 179 174 185 173
219 225 228 226 231 231 234 235 236 236 234 241 229 234 223 216 201 231 219 208 199 208 209 201 209 209 206 206 196 186 187 195 190 192 183 179 179 176 178 181 181 181 186 189 187 188 181 186 184
214 222 225 230 230 230 236 235 233 232 221 227 234 236 202 220 218 215 213 216 204 217 217 208 208 220 216 216 215 202 198 204 206 201 205 189 186 186 186 189 192 192 191 196 196 195 193 188 186
215 219 221 225 231 229 232 230 234 237 230 234 222 210 200 277 236 225 208 220 218 227 223 220 213 213 224 224 225 224 207 209 215 221 216 208 203 194 186 197 202 200 202 202 204 211 205 200 196
213 216 218 225 232 234 227 226 230 238 239 240 229 200 215 218 220 224 224 216 220 238 231 233 220 210 236 235 227 225 227 212 215 226 230 225 215 213 204 202 205 209 209 211 209 209 208 209 207
213 218 224 225 229 234 236 233 234 233 250 241 219 204 205 202 209 223 224 210 205 233 231 228 220 215 223 234 232 224 231 228 218 222 224 228 227 226 222 213 210 208 211 220 215 211 211 210 212
Height
5882 5880 5879 5879 5884 5883 5884 5884 5884 5883 5885 5884 5886 5884 5885 5887 5888 5892 5891 5892 5892 5893 5893 5893 5893 5894 5894 5895 5895 5895 5895 5894 5895 5894 5894 5893 5894 5895 5895 5895 5896 5897 5897 5898 5899 5900 5900 5900 5901
5883 5881 5880 5880 5884 5884 5885 5886 5887 5885 5885 5886 5887 5886 5887 5889 5889 5891 5892 5894 5895 5895 5895 5894 5894 5895 5894 5894 5894 5895 5895 5895 5895 5895 5895 5894 5895 5896 5896 5896 5897 5898 5899 5900 5901 5902 5902 5903 5903
5884 5882 5883 5885 5883 5886 5888 5888 5888 5889 5887 5888 5888 5890 5890 5891 5891 5893 5893 5894 5897 5896 5896 5896 5896 5895 5895 5895 5895 5895 5896 5896 5896 5896 5896 5895 5896 5896 5897 5898 5899 5899 5900 5902 5904 5904 5903 5905 5905
5883 5884 5884 5883 5885 5887 5888 5889 5889 5891 5889 5889 5890 5890 5893 5894 5893 5895 5895 5896 5898 5898 5898 5898 5898 5898 5898 5897 5896 5896 5897 5897 5897 5897 5897 5897 5898 5897 5898 5899 5901 5902 5902 5903 5904 5906 5906 5907 5908
5883 5883 5883 5884 5884 5887 5889 5889 5890 5892 5890 5893 5892 5892 5894 5895 5896 5897 5897 5898 5901 5901 5901 5900 5899 5899 5899 5899 5898 5899 5898 5898 5899 5899 5899 5898 5898 5898 5899 5900 5901 5903 5905 5905 5907 5908 5909 5910 5911
5882 5882 5881 5881 5882 5883 5887 5889 5891 5893 5893 5894 5895 5896 5894 5896 5898 5899 5901 5902 5904 5904 5903 5903 5902 5901 5900 5900 5900 5901 5900 5900 5900 5899 5899 5898 5897 5897 5897 5899 5901 5903 5904 5906 5908 5911 5912 5912 5914
5881 5879 5878 5876 5880 5883 5887 5889 5891 5895 5894 5895 5898 5899 5897 5898 5902 5901 5904 5906 5907 5907 5906 5905 5905 5903 5902 5903 5902 5902 5902 5902 5902 5901 5900 5899 5897 5898 5897 5898 5901 5904 5906 5909 5912 5914 5915 5916 5917
5880 5880 5875 5874 5876 5881 5885 5889 5891 5896 5895 5896 5898 5900 5898 5901 5904 5903 5907 5909 5909 5909 5909 5908 5907 5906 5906 5905 5905 5904 5904 5904 5904 5903 5901 5901 5900 5900 5898 5899 5902 5905 5908 5912 5914 5916 5917 5918 5919
5879 5881 5877 5875 5876 5879 5885 5890 5891 5895 5896 5897 5900 5902 5900 5902 5905 5906 5909 5911 5912 5912 5912 5911 5910 5909 5909 5908 5908 5907 5907 5907 5906 5905 5904 5904 5904 5904 5903 5904 5906 5909 5911 5914 5916 5918 5919 5920 5921
5880 5880 5879 5878 5879 5883 5888 5891 5892 5895 5896 5897 5901 5903 5903 5904 5907 5907 5910 5913 5914 5914 5915 5914 5914 5913 5912 5910 5910 5910 5910 5910 5910 5909 5908 5908 5907 5908 5909 5909 5911 5913 5915 5917 5919 5920 5922 5922 5923
5881 5880 5881 5879 5882 5884 5887 5890 5893 5894 5897 5898 5899 5904 5905 5906 5910 5910 5911 5915 5916 5916 5917 5917 5916 5915 5914 5914 5913 5914 5913 5913 5913 5913 5912 5911 5909 5911 5914 5915 5916 5918 5918 5920 5921 5923 5924 5925 5926
5881 5881 5880 5880 5883 5886 5888 5889 5892 5894 5898 5899 5900 5903 5904 5908 5909 5911 5912 5913 5917 5918 5919 5919 5918 5917 5916 5917 5916 5916 5916 5916 5917 5917 5915 5914 5915 5915 5917 5917 5918 5920 5922 5923 5924 5926 5926 5928 5929
5879 5879 5881 5883 5884 5887 5891 5889 5890 5891 5896 5899 5902 5904 5905 5909 5912 5913 5913 5915 5917 5920 5921 5920 5920 5920 5919 5919 5919 5919 5919 5919 5920 5920 5919 5919 5919 5919 5921 5921 5922 5922 5924 5926 5928 5929 5930 5931 5932
5879 5878 5882 5883 5886 5889 5888 5890 5892 5892 5896 5898 5901 5904 5906 5908 5911 5914 5915 5916 5918 5921 5922 5923 5922 5921 5922 5922 5923 5923 5922 5922 5923 5923 5923 5923 5924 5924 5924 5925 5926 5927 5928 5929 5930 5932 5934 5935 5936
5877 5875 5881 5883 5887 5888 5890 5891 5894 5891 5894 5897 5901 5905 5907 5908 5911 5914 5915 5917 5919 5921 5923 5925 5924 5924 5923 5924 5925 5926 5925 5925 5926 5927 5927 5927 5927 5928 5928 5929 5930 5931 5932 5933 5933 5935 5937 5937 5938
5875 5879 5882 5880 5884 5888 5890 5892 5892 5893 5892 5897 5900 5903 5907 5909 5912 5914 5915 5916 5919 5921 5924 5926 5927 5926 5926 5926 5928 5929 5928 5928 5928 5930 5931 5931 5932 5932 5932 5932 5933 5933 5935 5936 5936 5937 5938 5939 5941
5875 5878 5881 5881 5883 5887 5890 5890 5891 5893 5895 5899 5901 5903 5907 5910 5912 5914 5916 5918 5919 5921 5924 5927 5928 5928 5929 5929 5930 5930 5930 5931 5931 5932 5934 5935 5936 5936 5937 5937 5936 5937 5937 5938 5939 5939 5941 5943 5944
5872 5876 5880 5881 5883 5887 5888 5889 5890 5894 5896 5900 5902 5904 5906 5909 5911 5914 5917 5919 5920 5921 5924 5926 5928 5930 5931 5931 5931 5932 5932 5933 5934 5935 5936 5938 5938 5939 5939 5941 5940 5940 5940 5942 5942 5943 5944 5946 5949
5868 5873 5877 5879 5880 5881 5884 5887 5890 5893 5896 5899 5901 5903 5906 5908 5912 5914 5916 5918 5921 5922 5925 5927 5929 5932 5932 5933 5933 5934 5935 5935 5936 5938 5940 5941 5941 5942 5943 5944 5945 5945 5945 5946 5947 5948 5948 5950 5951
5866 5870 5873 5876 5879 5878 5883 5884 5887 5892 5895 5896 5900 5902 5904 5907 5912 5915 5915 5917 5921 5923 5925 5927 5929 5933 5932 5933 5935 5936 5937 5938 5938 5939 5941 5942 5943 5944 5945 5946 5948 5949 5949 5950 5951 5951 5951 5953 5954
5861 5865 5869 5872 5877 5877 5877 5880 5883 5889 5892 5896 5898 5900 5902 5906 5910 5915 5916 5918 5920 5923 5926 5928 5930 5932 5934 5934 5936 5938 5939 5939 5940 5942 5942 5943 5944 5945 5947 5948 5950 5951 5952 5952 5953 5954 5954 5955 5957
5858 5861 5866 5869 5872 5875 5877 5878 5880 5887 5890 5892 5897 5899 5902 5905 5909 5912 5916 5918 5921 5924 5926 5927 5930 5932 5935 5937 5937 5939 5940 5941 5942 5943 5943 5943 5945 5947 5948 5950 5951 5951 5953 5955 5955 5956 5957 5958 5959
5856 5854 5861 5865 5869 5872 5876 5881 5882 5883 5887 5890 5893 5897 5901 5903 5908 5910 5914 5917 5920 5923 5925 5927 5931 5932 5934 5936 5939 5940 5942 5944 5943 5943 5945 5945 5946 5947 5949 5951 5952 5953 5955 5957 5957 5958 5959 5960 5960
5849 5851 5857 5862 5864 5871 5874 5878 5880 5882 5886 5889 5893 5896 5899 5902 5904 5907 5911 5914 5917 5922 5924 5926 5929 5931 5934 5936 5938 5939 5941 5942 5944 5944 5945 5946 5947 5948 5949 5951 5953 5955 5956 5958 5958 5959 5960 5961 5962
5842 5845 5852 5858 5860 5870 5872 5874 5877 5878 5881 5884 5888 5892 5897 5899 5903 5905 5910 5913 5915 5918 5922 5925 5926 5928 5932 5934 5936 5938 5940 5942 5943 5944 5944 5946 5948 5949 5950 5952 5953 5955 5957 5958 5959 5959 5960 5962 5962
5838 5844 5848 5851 5858 5867 5867 5871 5875 5876 5879 5882 5886 5891 5894 5898 5900 5904 5907 5910 5911 5914 5919 5921 5924 5926 5928 5931 5933 5936 5939 5941 5942 5942 5944 5945 5947 5948 5950 5952 5954 5955 5956 5957 5958 5959 5960 5961 5962
5832 5835 5848 5850 5855 5859 5861 5869 5871 5872 5878 5880 5882 5885 5890 5896 5898 5901 5904 5906 5910 5913 5914 5916 5919 5923 5927 5929 5931 5933 5935 5938 5940 5940 5943 5944 5945 5946 5948 5950 5951 5953 5955 5956 5957 5958 5959 5960 5962
5827 5834 5838 5843 5848 5853 5858 5864 5867 5870 5875 5876 5879 5881 5886 5892 5896 5898 5901 5903 5906 5910 5911 5914 5916 5919 5922 5925 5928 5931 5933 5936 5938 5940 5941 5943 5945 5944 5945 5947 5949 5951 5952 5955 5956 5958 5958 5959 5960
5823 5825 5831 5838 5844 5847 5856 5861 5864 5868 5872 5875 5877 5879 5884 5889 5891 5894 5897 5901 5901 5904 5908 5911 5913 5916 5916 5920 5923 5926 5929 5932 5934 5937 5939 5941 5943 5944 5944 5945 5947 5949 5951 5953 5954 5955 5957 5959 5959
5817 5823 5827 5832 5837 5842 5849 5858 5861 5866 5868 5873 5875 5874 5877 5881 5885 5888 5890 5895 5898 5899 5903 5906 5910 5911 5912 5915 5919 5921 5924 5927 5929 5932 5935 5938 5940 5942 5944 5945 5945 5946 5947 5949 5951 5952 5954 5956 5956